Regional Weather Roundup
Issued by NWS

Home | Current Version | Previous Version | Text Only | Print | Product List | Glossary Off
Versions: 1 2 3 4 5 6 7 8 9 10 11 12 13 14 15 16 17 18 19 20 21 22 23 24 25 26 27 28 29 30 31 32 33 34 35 36 37 38 39 40 41 42 43 44 45 46 47 48 49 50

000
ASUS43 KLOT 260803
RWRIL

ILLINOIS REGIONAL WEATHER ROUNDUP
NATIONAL WEATHER SERVICE CHICAGO/ROMEOVILLE IL
300 AM CDT THU MAY 26 2016

NOTE: "FAIR" INDICATES FEW OR NO CLOUDS BELOW 12,000 FEET WITH NO
SIGNIFICANT WEATHER AND/OR OBSTRUCTIONS TO VISIBILITY.

* THESE STATIONS ARE NOT UNDER NWS QUALITY CONTROL. THEY ALSO MAY NOT
  REPORT WEATHER SUCH AS PRECIPITATION OR FOG.

ILZ001-002-007-009-015-016-024-260900-
NORTHWEST ILLINOIS

CITY           SKY/WX    TMP DP  RH WIND       PRES   REMARKS
MOLINE         CLOUDY    74  63  68 SW10      29.85F
$$

ILZ003-004-008-010-011-017-018-260900-
NORTH CENTRAL ILLINOIS

CITY           SKY/WX    TMP DP  RH WIND       PRES   REMARKS
ROCKFORD       MOCLDY    65  63  93 S6        29.91F
FREEPORT*      CLEAR     65  62  89 S8        29.90F
ROCHELLE*      PTCLDY    65  63  94 S6        29.91F
$$

ILZ005-006-012>014-019>023-260900-
NORTHEAST ILLINOIS

CITY           SKY/WX    TMP DP  RH WIND       PRES   REMARKS
CHICAGO-OHARE  CLEAR     62  61  96 S3        29.91F
CHICAGO-MIDWAY CLEAR     68  63  84 S8        29.92S
AURORA         CLEAR     66  64  93 S3        29.92S
LANSING*       CLEAR     66  63  89 S7        29.94S
WAUKEGAN       PTCLDY    64  63  96 S6        29.90S
DUPAGE AIRPORT CLEAR     64  62  93 S7        29.91F
WHEELING       CLEAR     62  61  96 S6        29.92F
NORTHERLY ISL    N/A     58  57  97 S1          N/A
NORTHERLY ISL    N/A     58  57  97 S1          N/A
$$

LMZ740>746-260900-
SOUTHERN LAKE MICHIGAN

STATION/POSITION SKY/WX   TEMP    WIND        PRES    VSBY  WAVE
                          AIR SEA DIR/SP/G                  HT/PER
                          (F)     (DEG/KT/KT) (MB)    (MI)  (FT/S)
SOUTHERN BUOY              54 49  140/ 10/ 12 1012.7          1/ 3
WILMETTE HARBOR            57 56  190/ 10/ 12   N/A           1/ 2
HARRISON CRIB              60     180/ 10/ 11   N/A
BURNHAM HARBOR             60     200/  3       N/A
CALUMET HARBOR             67     160/  6/  8 1012.9F
BURNS HARBOR               69     180/ 10/ 15 1014.2F
MICHIGAN CITY              65     120/  7/  8   N/A
MICHIGAN CITY 6N           62 59  140/  6/  8   N/A           1/ 3
ST. JOSEPH                 63 61  130/  8/ 10   N/A           1
$$

ILZ025>027-034>036-040-047-049-050-058-095>099-260900-
WEST-CENTRAL ILLINOIS

CITY           SKY/WX    TMP DP  RH WIND       PRES   REMARKS
QUINCY         CLOUDY    71  64  78 S8        29.89F
MACOMB*        CLOUDY    70  64  81 S9        29.92F
PITTSFIELD*    CLOUDY    71  66  84 S7        29.92F
$$

ILZ028>032-037-038-041>044-048-051>054-059>061-260900-
CENTRAL ILLINOIS

CITY           SKY/WX    TMP DP  RH WIND       PRES   REMARKS
BLOOMINGTON    CLEAR     66  66 100 S8        29.96S
DECATUR        CLEAR     69  65  86 SW9       29.96S
PEORIA         CLEAR     68  65  90 S7        29.91F
LINCOLN*       CLEAR     70  67  90 S3        29.93F
SPRINGFIELD    MOCLDY    71  66  84 SW8       29.94F
TAYLORVILLE    NOT AVBL
$$

ILZ033-039-045-046-055>057-062-063-260900-
EAST-CENTRAL ILLINOIS

CITY           SKY/WX    TMP DP  RH WIND       PRES   REMARKS
CHAMPAIGN      CLOUDY    70  66  87 S8        29.97F
MATTOON        CLEAR     67  64  90 S8        29.97S
$$

ILZ079-100>102-260900-
SOUTHWEST ILLINOIS

CITY           SKY/WX    TMP DP  RH WIND       PRES   REMARKS
ALTON          CLOUDY    69  66  90 S7        29.95F
BELLEVILLE     PTCLDY    69  69 100 VRB1      29.95F
CAHOKIA*       PTCLDY    71  66  84 S5        29.95F
SPARTA*        MOCLDY    67  65  93 S10       29.99F
$$

ILZ064>066-069>071-074>076-080>082-084>086-088>090-092>094-260900-
SOUTH-CENTRAL ILLINOIS

CITY           SKY/WX    TMP DP  RH WIND       PRES   REMARKS
CARBONDALE     CLEAR     67  62  84 S9        30.00F
EFFINGHAM*     MOCLDY    66  66 100 SE5       30.01S
MT. VERNON     PTCLDY    66  61  82 S7        30.01S
SALEM*         PTCLDY    69  65  88 S7        29.99S
$$

ILZ067-068-072-073-078-083-087-091-260900-
SOUTHEAST ILLINOIS

CITY           SKY/WX    TMP DP  RH WIND       PRES   REMARKS
LAWRENCEVILLE  CLOUDY    68  65  90 S7        30.02S
FLORA*         MOCLDY    68  65  90 S7        30.00S
HARRISBURG*    CLOUDY    67  65  91 CALM      30.03S
ROBINSON*      MOCLDY    65  64  98 S3        30.02F
$$

ABBREVIATIONS USED IN REMARKS
   TC - TEMPERATURE IN CELSIUS
  WCI - WIND CHILL INDEX
   HX - HEAT INDEX
  VSB - VISIBILITY
$$





USA.gov is the U.S. government's official web portal to all federal, state and local government web resources and services.